Peoria, IL

1:25 PM CST on February 23, 2018 (GMT -0600)
Greater Peoria Regional

Weather History for KPIA - January, 2014

Change the Weather History Date:

Saturday, January 4, 2014

  Actual Average Record
Temperature  
Mean Temperature 29 °F 25 °F  
Max Temperature 36 °F 33 °F 65 °F (1997)
Min Temperature 21 °F 17 °F -17 °F (1884)
Degree Days  
Heating Degree Days 36 40  
Month to date heating degree days 193 160  
Since 1 July heating degree days 2619 2438  
Cooling Degree Days 0 0  
Month to date cooling degree days 0 0  
Year to date cooling degree days 0 0  
Moisture  
Dew Point 21 °F    
Average Humidity 74    
Maximum Humidity 92    
Minimum Humidity 56    
Precipitation  
Precipitation 0.21 in 0.06 in 1.29 in (1993)
Month to date precipitation 0.37 0.26  
Year to date precipitation 0.37 0.26  
Snow  
Snow 2.40 in 0.20 in 5.00 in (1913)
Month to date snowfall 4.3 0.9  
Since 1 July snowfall 13.4 9.1  
Snow Depth 1.00 in    
Sea Level Pressure  
Sea Level Pressure 29.96 in    
Wind  
Wind Speed 12 mph (WNW)    
Max Wind Speed 23 mph    
Max Gust Speed 30 mph    
Visibility 6 miles    
Events Snow    
T = Trace of Precipitation, MM = Missing Value Source: NWS Daily Summary

Daily Weather History Graph

Daily Weather History Graph

Search for Another Location

Airport or City:

Trip Planner

Search our weather history database for the weather conditions in past years. The results will help you decide how hot, cold, wet, or windy it might be!

Date:

Astronomy

Jan. 04, 2014 Rise Set
Actual Time 7:22 AM CST 4:44 PM CST
Civil Twilight 6:52 AM CST 5:15 PM CST
Nautical Twilight 6:17 AM CST 5:49 PM CST
Astronomical Twilight 5:44 AM CST 6:23 PM CST
Moon 9:27 AM CST (1/4) 9:06 PM CST (1/4)
Length of Visible Light 10h 23m
Length of Day
9h 22m
Waxing Crescent, 15% of the Moon is Illuminated
Jan 4
Waxing Crescent
Jan 7
First Quarter
Jan 15
Full
Jan 23
Last Quarter
Jan 30
New

Hourly Weather History & Observations

Time (CST) Temp. Windchill Dew Point Humidity Pressure Visibility Wind Dir Wind Speed Gust Speed Precip Events Conditions
12:54 AM 21.0 °F 5.7 °F 14.0 °F 74% 29.94 in 10.0 mi South 19.6 mph - N/A   Clear
1:54 AM 21.9 °F 7.3 °F 14.0 °F 72% 29.94 in 10.0 mi South 18.4 mph 29.9 mph N/A   Clear
2:54 AM 21.9 °F 6.2 °F 14.0 °F 72% 29.91 in 10.0 mi South 21.9 mph 28.8 mph N/A   Clear
3:54 AM 23.0 °F 8.7 °F 14.0 °F 68% 29.91 in 10.0 mi SSW 18.4 mph 28.8 mph N/A   Clear
4:54 AM 23.0 °F 8.3 °F 12.9 °F 65% 29.91 in 10.0 mi SSW 19.6 mph 25.3 mph N/A   Clear
5:54 AM 23.0 °F 8.3 °F 14.0 °F 68% 29.90 in 10.0 mi SSW 19.6 mph - N/A   Clear
6:54 AM 24.1 °F 10.6 °F 14.0 °F 65% 29.90 in 10.0 mi SSW 17.3 mph - N/A   Clear
7:54 AM 25.0 °F 12.2 °F 15.1 °F 66% 29.92 in 10.0 mi SSW 16.1 mph - N/A   Clear
8:54 AM 27.0 °F 14.3 °F 17.1 °F 66% 29.93 in 10.0 mi South 17.3 mph - N/A   Clear
9:54 AM 28.9 °F 17.7 °F 18.0 °F 64% 29.94 in 10.0 mi SSW 15.0 mph - N/A   Clear
10:54 AM 30.9 °F 19.8 °F 19.0 °F 61% 29.93 in 10.0 mi SSW 16.1 mph - N/A   Clear
11:54 AM 35.1 °F 25.5 °F 21.9 °F 59% 29.90 in 10.0 mi SSW 15.0 mph - N/A   Clear
12:54 PM 35.1 °F 24.8 °F 21.9 °F 59% 29.88 in 10.0 mi SW 17.3 mph - N/A   Overcast
1:54 PM 35.1 °F 26.4 °F 23.0 °F 61% 29.88 in 10.0 mi SSW 12.7 mph - N/A   Overcast
2:54 PM 35.1 °F 29.3 °F 25.0 °F 67% 29.92 in 10.0 mi SSW 6.9 mph - N/A   Overcast
3:54 PM 34.0 °F 31.0 °F 26.1 °F 73% 29.95 in 10.0 mi SSW 3.5 mph - N/A   Overcast
4:54 PM 35.1 °F - 25.0 °F 67% 29.95 in 10.0 mi Calm Calm - N/A   Overcast
5:54 PM 35.1 °F 32.2 °F 24.1 °F 64% 29.96 in 10.0 mi WNW 3.5 mph - N/A   Overcast
6:40 PM 30.9 °F 25.2 °F 28.0 °F 89% 29.95 in 2.0 mi NW 5.8 mph - 0.00 in Snow Light Snow
6:48 PM 30.2 °F 24.3 °F 28.4 °F 93% 29.95 in 1.5 mi NW 5.8 mph - 0.00 in Snow Light Snow
6:49 PM 30.9 °F 25.2 °F 28.9 °F 92% 29.98 in 1.5 mi NNW 5.8 mph - 0.00 in Snow Light Snow
7:05 PM 30.9 °F 26.2 °F 28.9 °F 92% 29.96 in 1.2 mi NNW 4.6 mph - 0.01 in Snow Light Snow
7:21 PM 30.9 °F 26.2 °F 28.9 °F 92% 29.97 in 0.8 mi NNW 4.6 mph - 0.02 in Snow Light Snow
7:46 PM 30.9 °F 27.5 °F 28.9 °F 92% 29.98 in 1.0 mi NW 3.5 mph - 0.05 in Snow Light Snow
7:54 PM 30.9 °F 27.5 °F 28.9 °F 92% 30.00 in 1.0 mi NNW 3.5 mph - 0.05 in Snow Light Snow
8:13 PM 28.0 °F 20.0 °F 25.0 °F 88% 29.98 in 1.0 mi North 8.1 mph - 0.01 in Snow Light Snow
8:24 PM 27.0 °F 19.5 °F 24.1 °F 89% 29.98 in 1.0 mi NNW 6.9 mph - 0.02 in Snow Light Snow
8:54 PM 26.1 °F 19.4 °F 24.1 °F 92% 30.00 in 1.0 mi North 5.8 mph - 0.04 in Snow Light Snow
9:37 PM 26.1 °F 20.5 °F 23.0 °F 88% 29.99 in 0.8 mi NNW 4.6 mph - 0.03 in Snow Light Snow
9:51 PM 24.8 °F 16.9 °F 23.0 °F 93% 30.00 in 1.0 mi NNW 6.9 mph - 0.04 in Snow Light Snow
9:52 PM 25.0 °F 18.1 °F 23.0 °F 92% 30.02 in 1.2 mi NNW 5.8 mph - 0.04 in Snow Light Snow
10:03 PM 25.0 °F 18.1 °F 21.9 °F 88% 30.00 in 1.5 mi NNW 5.8 mph - 0.00 in Snow Light Snow
10:16 PM 25.0 °F 18.1 °F 21.9 °F 88% 30.00 in 1.0 mi NNW 5.8 mph - 0.01 in Snow Light Snow
10:31 PM 25.0 °F 18.1 °F 21.9 °F 88% 30.00 in 0.8 mi NNW 5.8 mph - 0.02 in Snow Light Snow
10:35 PM 24.1 °F 17.0 °F 21.9 °F 91% 30.00 in 1.0 mi NNW 5.8 mph - 0.02 in Snow Light Snow
10:54 PM 24.1 °F 19.7 °F 21.0 °F 88% 30.02 in 1.0 mi NNW 3.5 mph - 0.04 in Snow Light Snow
11:36 PM 24.1 °F 17.0 °F 21.0 °F 88% 30.00 in 1.0 mi NNW 5.8 mph - 0.03 in Snow Light Snow
11:51 PM 24.8 °F 20.5 °F 21.2 °F 86% 30.00 in 1.2 mi NNW 3.5 mph - 0.03 in Snow Light Snow
11:54 PM 24.1 °F 18.2 °F 21.0 °F 88% 30.01 in 1.2 mi North 4.6 mph - 0.04 in Snow Light Snow